[[{"header":{"parameterUnit":"m.s-1","parameterCategory":2,"la1":30.2991,"la2":30.254,"lo1":-89.0895,"lo2":-89.0444,"dy":0.0017,"dx":0.0017,"nx":28,"ny":28,"refTime":"2024-02-05T09:00:00:Z","depth":"0","parameterNumber":2,"parameterNumberName":"U-component_of_CURRENTS"},"data":[0,0,0,0,0,0,0,0,0,0,0,0,0,0,0,0,0,0,0,0,0,0,0,0,0,0,0,0,0,0,0,0,0,0,0,0,0,0,0,0,0,0,0,0,0,0,0,0,0,0,0,0,0,0,0,0,0,0,0.358,0.358,0,0.36,0.36,0.36,0.3579,0.3579,0.3578,0.3578,0.3553,0.3553,0.3552,0,0,0,0,0,0,0,0,0,0,0,0,0,0.3535,0.3536,0.358,0.358,0.3581,0.36,0.36,0.36,0.3579,0.3579,0.3578,0.3577,0.3553,0.3553,0.3552,0,0,0,0,0,0,0,0,0,0,0,0,0,0.3552,0.3536,0.358,0.3575,0.3575,0.36,0.36,0.36,0.3579,0.3579,0.3578,0.3577,0.3553,0.3553,0.3552,0.3567,0,0,0.3552,0.3551,0,0,0,0,0,0,0,0,0.3551,0.3553,0.3575,0.3575,0.3575,0.3589,0.3575,0.3587,0.358,0.3575,0.3578,0.3577,0.3563,0.3562,0.3564,0.3565,0.3564,0.3552,0.3551,0.3551,0.3551,0,0,0,0,0,0,0,0.355,0.3552,0.3585,0.3576,0.3576,0.3576,0.3577,0.3577,0.357,0.3575,0.3574,0.3581,0.3562,0.3564,0.3563,0.3564,0.3552,0.3551,0.3551,0.3551,0.361,0.3611,0,0,0,0,0,0,0.3554,0.3551,0.3584,0.3585,0.3564,0.3578,0.3579,0.3583,0.3571,0.3569,0.3582,0.358,0.3565,0.3563,0.3562,0.3602,0.3551,0.3551,0.3551,0.3608,0.361,0.3612,0,0,0,0,0,0,0.3553,0.3556,0.3583,0.3571,0.3575,0.3579,0.3584,0.3584,0.359,0.3577,0.3574,0.359,0.3564,0.3562,0.3575,0.3599,0.3551,0.3551,0.3606,0.3609,0.3611,0.3666,0,0,0,0,0,0,0.3551,0.3556,0.3559,0.3571,0.3576,0.3608,0.3585,0.3585,0.3597,0.3595,0.3583,0.358,0.3564,0.3575,0.3574,0.3598,0.3551,0.3604,0.3607,0.361,0.3662,0.367,0.3677,0,0,0,0,0,0.3549,0.3558,0.3559,0.3564,0.3581,0.361,0.3612,0.361,0.3598,0.361,0.3603,0.358,0.3595,0.3576,0.3575,0.3599,0.3602,0.3606,0.361,0.3658,0.3668,0.3677,0,0,0,0,0,0,0.3537,0.3558,0.3559,0.3572,0.3595,0.3607,0.3618,0.3618,0.3622,0.3617,0.3598,0.3595,0.3621,0.3605,0.3585,0.3629,0.3597,0.3601,0.3634,0.3643,0.3651,0.3664,0.355,0,0,0,0,0,0.3539,0.3552,0.3574,0.3587,0.36,0.3611,0.3621,0.3625,0.3632,0.3632,0.3624,0.3622,0.3637,0.3635,0.3643,0.3659,0.3671,0.3677,0.3684,0.369,0.3703,0.3756,0.3769,0.3625,0.3625,0.3625,0,0,0.3536,0.3551,0.3557,0.3586,0.3601,0.3625,0.3615,0.3639,0.3658,0.363,0.3646,0.3651,0.3651,0.3676,0.3685,0.3662,0.3738,0.3695,0.3701,0.3709,0.3761,0.3775,0.3788,0.3627,0.3627,0.3626,0,0,0.3545,0.3556,0.3572,0.3595,0.3627,0.3639,0.365,0.367,0.3679,0.3702,0.3695,0.3717,0.372,0.3732,0.3738,0.3793,0.3784,0.3793,0.3831,0.3882,0.3894,0.3905,0.3935,0.3949,0.3787,0.3787,0.3787,0,0.3541,0.3564,0.3583,0.3609,0.3633,0.3648,0.3678,0.3693,0.3712,0.3736,0.3713,0.3764,0.3752,0.3805,0.3817,0.381,0.3831,0.3792,0.3892,0.3903,0.3913,0.3942,0.3955,0.379,0.379,0.379,0.3789,0,0.3563,0.3585,0.3601,0.3637,0.3668,0.3696,0.3729,0.3757,0.3767,0.3785,0.3843,0.3841,0.3874,0.3874,0.3855,0.3928,0.3917,0.3903,0.3867,0.3931,0.3957,0.397,0.3795,0.3794,0.3793,0.3792,0,0,0.3538,0.3603,0.3605,0.362,0.3687,0.37,0.3765,0.3822,0.3844,0.3883,0.3928,0.3964,0.3974,0.3983,0.3976,0.4004,0.408,0.398,0.3981,0.4006,0.4188,0.4178,0.4191,0.4085,0.4088,0.409,0.4175,0,0.3548,0.3587,0.3634,0.3669,0.3691,0.3749,0.3792,0.3847,0.3888,0.3928,0.398,0.4008,0.4014,0.4017,0.4066,0.4078,0.4119,0.4057,0.4125,0.4127,0.4108,0.4208,0.4077,0.4143,0.4188,0.419,0.4192,0,0.3549,0.3576,0.3618,0.367,0.3685,0.3709,0.3784,0.3827,0.3918,0.3952,0.4038,0.4068,0.4151,0.4114,0.423,0.4193,0.4205,0.4207,0.421,0.4193,0.4143,0.4088,0.4165,0.4047,0.4212,0.421,0.4209,0,0.3493,0.3555,0.3583,0.3603,0.3672,0.3703,0.3741,0.3831,0.3906,0.3969,0.405,0.4126,0.4203,0.424,0.4305,0.4262,0.4411,0.4348,0.4358,0.4356,0.4255,0.424,0.4223,0.4428,0.4427,0.4427,0.4427,0,0.3475,0.3484,0.3544,0.3549,0.3587,0.3641,0.3704,0.3754,0.3875,0.3952,0.4059,0.4153,0.4245,0.4358,0.4347,0.4434,0.447,0.4397,0.4395,0.427,0.4256,0.4155,0.4104,0.443,0.443,0.4429,0.4428,0,0.3407,0.3451,0.3476,0.3535,0.3563,0.3578,0.3721,0.3749,0.3883,0.4001,0.4042,0.4242,0.4359,0.4462,0.4523,0.4525,0.4432,0.4559,0.4405,0.4384,0.4237,0.4194,0.4063,0.3941,0.4558,0.4559,0.4559,0,0.3376,0.3381,0.3454,0.3468,0.3495,0.3554,0.3589,0.373,0.3793,0.4035,0.408,0.4291,0.4403,0.4574,0.4579,0.4611,0.4457,0.4496,0.4386,0.4246,0.4197,0.4023,0.3915,0.4265,0.4263,0.4262,0.426,0,0.3315,0.3342,0.3361,0.3401,0.3429,0.3489,0.3557,0.3643,0.3785,0.3929,0.4086,0.4207,0.4425,0.4434,0.4544,0.4527,0.4284,0.4462,0.4358,0.4019,0.3787,0.3662,0.4181,0.4246,0.4247,0.4248,0.4249,0.425,0.3262,0.3265,0.3289,0.3313,0.3346,0.337,0.3377,0.3479,0.3604,0.3742,0.3948,0.4064,0.4238,0.4388,0.4349,0.4239,0.4202,0.41,0.4076,0.3924,0.3752,0.4247,0.4287,0.4289,0.429,0.4291,0.4293,0,0.3177,0.318,0.3195,0.3202,0.3169,0.324,0.3298,0.3277,0.3334,0.3525,0.3662,0.3845,0.391,0.3992,0.4025,0.3889,0.3674,0.3762,0.347,0.3394,0.388,0.3814,0.3703,0.3704,0.3704,0.3704,0.3704,0.3704,0.3129,0.3095,0.3096,0.3012,0.3006,0.2927,0.2925,0.2937,0.3035,0.3133,0.3235,0.3411,0.369,0.3807,0.3702,0.3603,0.3297,0.3165,0.3126,0.3468,0.3495,0.3521,0.3445,0.326,0.326,0.2489,0.2484,0.2479]},{"header":{"parameterUnit":"m.s-1","parameterCategory":2,"la1":30.2991,"la2":30.254,"lo1":-89.0895,"lo2":-89.0444,"dy":0.0017,"dx":0.0017,"nx":28,"ny":28,"refTime":"2024-02-05T09:00:00:Z","depth":"0","parameterNumber":3,"parameterNumberName":"V-component_of_CURRENTS"},"data":[0,0,0,0,0,0,0,0,0,0,0,0,0,0,0,0,0,0,0,0,0,0,0,0,0,0,0,0,0,0,0,0,0,0,0,0,0,0,0,0,0,0,0,0,0,0,0,0,0,0,0,0,0,0,0,0,0,0,0.0018,0.0017,0,-0.0047,-0.0048,-0.0049,-0.0096,-0.0096,-0.0097,-0.0097,-0.0174,-0.0176,-0.0178,0,0,0,0,0,0,0,0,0,0,0,0,0,0.0045,0.0045,0.0018,0.0017,0.0016,-0.0047,-0.0048,-0.0049,-0.0096,-0.0096,-0.0097,-0.0097,-0.0173,-0.0176,-0.0178,0,0,0,0,0,0,0,0,0,0,0,0,0,0.001,0.0045,0.0018,-0.0013,-0.0017,-0.0047,-0.0048,-0.005,-0.0096,-0.0096,-0.0097,-0.0097,-0.0173,-0.0175,-0.0178,-0.0188,0,0,-0.0187,-0.0188,0,0,0,0,0,0,0,0,0.0012,0.0009,-0.0008,-0.0011,-0.0015,-0.0063,-0.0067,-0.0096,-0.0096,-0.0068,-0.0097,-0.0097,-0.0137,-0.0142,-0.0156,-0.0191,-0.0195,-0.0187,-0.0188,-0.019,-0.019,0,0,0,0,0,0,0,0.0015,0.0011,-0.001,-0.0009,-0.0013,-0.0044,-0.0049,-0.0073,-0.0101,-0.007,-0.0073,-0.0078,-0.0139,-0.0153,-0.0158,-0.0196,-0.0187,-0.0189,-0.0191,-0.0192,-0.0242,-0.0242,0,0,0,0,0,0,0.003,0.0014,-0.0008,-0.0011,-0.0,-0.0043,-0.0049,-0.0048,-0.01,-0.0108,-0.0078,-0.008,-0.0148,-0.0155,-0.0161,-0.0158,-0.019,-0.0192,-0.0194,-0.0242,-0.0242,-0.0242,0,0,0,0,0,0,0.003,0.0028,-0.0005,0.0,-0.0006,-0.0043,-0.0042,-0.0049,-0.0059,-0.0105,-0.0114,-0.0078,-0.0149,-0.0157,-0.0174,-0.0162,-0.0193,-0.0196,-0.0243,-0.0242,-0.0242,-0.0163,0,0,0,0,0,0,0.0032,0.0029,0.0034,0.0002,-0.0005,-0.001,-0.0042,-0.005,-0.0061,-0.0064,-0.0109,-0.0117,-0.015,-0.0169,-0.0176,-0.0166,-0.0198,-0.0243,-0.0243,-0.0242,-0.0166,-0.016,-0.0155,0,0,0,0,0,0.0033,0.0049,0.0035,0.0032,0.0003,-0.0009,-0.0015,-0.0045,-0.006,-0.0056,-0.0088,-0.0115,-0.0171,-0.0171,-0.0179,-0.017,-0.0243,-0.0243,-0.0242,-0.0169,-0.0161,-0.0155,0,0,0,0,0,0,0.0064,0.0045,0.0029,0.0038,0.002,-0.0016,-0.0015,-0.0036,-0.0059,-0.0062,-0.0109,-0.0118,-0.0131,-0.0161,-0.0159,-0.0184,-0.0213,-0.0214,-0.0154,-0.0148,-0.0142,-0.0116,-0.02,0,0,0,0,0,0.0074,0.008,0.0054,0.006,0.0056,0.0021,0.0012,-0.0006,-0.0031,-0.0042,-0.0075,-0.0109,-0.0136,-0.0148,-0.0179,-0.0186,-0.0216,-0.0188,-0.0182,-0.0177,-0.0162,-0.0203,-0.0199,-0.0239,-0.0239,-0.0239,0,0,0.0086,0.0077,0.0079,0.0067,0.0049,0.0058,0.0015,0.0011,0.0017,-0.0046,-0.0048,-0.009,-0.0135,-0.0147,-0.0156,-0.0168,-0.0181,-0.0176,-0.0172,-0.0159,-0.0202,-0.0198,-0.0194,-0.0239,-0.0239,-0.0239,0,0,0.0122,0.0108,0.0128,0.012,0.0105,0.0087,0.0092,0.0062,0.0049,0.0038,-0.0006,-0.0035,-0.0077,-0.0105,-0.0125,-0.0105,-0.0152,-0.012,-0.0067,-0.0106,-0.0103,-0.01,-0.0128,-0.0128,-0.0115,-0.0115,-0.0115,0,0.0138,0.0159,0.0131,0.0149,0.0153,0.0109,0.0135,0.0116,0.0084,0.0081,0.0049,-0.0013,-0.0055,-0.0066,-0.0064,-0.009,-0.0119,-0.0086,-0.0097,-0.0095,-0.0094,-0.0123,-0.0125,-0.0111,-0.0111,-0.0112,-0.0112,0,0.0189,0.0205,0.0217,0.0228,0.0228,0.0242,0.0219,0.0217,0.019,0.0164,0.014,0.0075,0.0042,0.0016,-0.0019,-0.0027,-0.0052,-0.0086,-0.011,-0.0085,-0.0118,-0.0121,-0.0105,-0.0107,-0.0108,-0.0109,0,0,0.0233,0.0251,0.0257,0.0281,0.0273,0.0287,0.03,0.0302,0.032,0.0262,0.0273,0.0204,0.016,0.0134,0.0079,0.0039,0.0016,-0.0013,-0.0017,-0.0031,-0.0063,-0.0078,-0.0084,-0.0023,-0.0023,-0.0023,-0.0087,0,0.0284,0.0344,0.0333,0.0392,0.0425,0.0397,0.0419,0.0412,0.0386,0.0383,0.0305,0.0285,0.0208,0.019,0.014,0.005,0.0011,0.0038,-0.0092,-0.0095,-0.0105,-0.0087,-0.004,-0.0093,-0.009,-0.0091,-0.0091,0,0.0344,0.0379,0.0445,0.0491,0.0503,0.0524,0.056,0.057,0.0545,0.052,0.0476,0.0415,0.0357,0.028,0.0146,0.0166,0.0066,-0.0015,-0.002,-0.0061,-0.0117,-0.012,-0.0099,-0.0298,-0.0096,-0.0096,-0.0096,0,0.0408,0.0463,0.0523,0.0536,0.0573,0.0598,0.0613,0.061,0.0648,0.0602,0.0624,0.052,0.0493,0.0348,0.0185,0.0165,0.0033,-0.0019,-0.0126,-0.0128,-0.0126,-0.0127,-0.0303,-0.0112,-0.0112,-0.0111,-0.0111,0,0.0475,0.0524,0.0558,0.0591,0.0678,0.0666,0.0744,0.0737,0.0755,0.0811,0.07,0.073,0.0509,0.0411,0.0232,0.0056,0.0068,-0.0105,-0.0143,-0.0097,-0.0096,-0.03,-0.0407,-0.0114,-0.0113,-0.0113,-0.0112,0,0.0536,0.0552,0.0629,0.0681,0.071,0.0766,0.0851,0.0906,0.09,0.0971,0.0969,0.0898,0.0764,0.0545,0.0314,0.0144,-0.0151,-0.0116,-0.0042,-0.0071,-0.0361,-0.0464,-0.0674,-0.0749,-0.0241,-0.0242,-0.0242,0,0.0571,0.0616,0.0705,0.0763,0.0787,0.0874,0.0943,0.0971,0.1043,0.1086,0.114,0.1045,0.1018,0.0684,0.0346,0.0039,-0.0159,-0.0136,-0.0175,-0.0362,-0.0506,-0.0595,-0.0648,-0.0141,-0.0141,-0.0141,-0.0141,0,0.064,0.0666,0.0731,0.0855,0.0936,0.105,0.1148,0.124,0.1279,0.136,0.1439,0.1424,0.1114,0.0828,0.0388,0.0168,-0.026,-0.0141,-0.0358,-0.0455,-0.054,-0.0633,-0.0116,-0.0139,-0.0139,-0.0139,-0.0139,-0.0139,0.069,0.0751,0.0836,0.0956,0.1063,0.1206,0.1315,0.1439,0.159,0.1724,0.168,0.171,0.1263,0.0689,0.0349,-0.0245,-0.0264,-0.0419,-0.053,-0.0604,-0.0676,-0.0149,-0.0207,-0.0207,-0.0208,-0.0208,-0.0209,0,0.0755,0.0824,0.0935,0.1077,0.1206,0.1254,0.1445,0.1569,0.1766,0.1906,0.1992,0.181,0.1267,0.0688,-0.0128,-0.056,-0.0703,-0.0794,-0.0913,-0.095,-0.0494,-0.049,-0.0584,-0.0584,-0.0584,-0.0584,-0.0583,-0.0583,0.0789,0.09,0.0957,0.1172,0.1281,0.1465,0.1584,0.1778,0.1936,0.2132,0.2186,0.2191,0.1733,0.0249,-0.0767,-0.0991,-0.1273,-0.1329,-0.1502,-0.1202,-0.1176,-0.1151,-0.1174,-0.141,-0.1411,-0.1882,-0.1886,-0.189]}],[{"header":{"parameterUnit":"m.s-1","parameterCategory":2,"la1":30.2991,"la2":30.254,"lo1":-89.0895,"lo2":-89.0444,"dy":0.0017,"dx":0.0017,"nx":28,"ny":28,"refTime":"2024-02-05T09:00:00:Z","depth":"2","parameterNumber":2,"parameterNumberName":"U-component_of_CURRENTS"},"data":[0,0,0,0,0,0,0,0,0,0,0,0,0,0,0,0,0,0,0,0,0,0,0,0,0,0,0,0,0,0,0,0,0,0,0,0,0,0,0,0,0,0,0,0,0,0,0,0,0,0,0,0,0,0,0,0,0,0,0.3094,0.3095,0,0.3127,0.3128,0.3128,0.3125,0.3125,0.3125,0.3124,0.3128,0.3128,0.3128,0,0,0,0,0,0,0,0,0,0,0,0,0,0.3036,0.3036,0.3094,0.3095,0.3095,0.3127,0.3128,0.3128,0.3125,0.3125,0.3125,0.3124,0.3127,0.3128,0.3128,0,0,0,0,0,0,0,0,0,0,0,0,0,0.3062,0.3037,0.3094,0.31,0.3101,0.3127,0.3128,0.3128,0.3125,0.3125,0.3125,0.3124,0.3127,0.3128,0.3128,0.3139,0,0,0.313,0.313,0,0,0,0,0,0,0,0,0.306,0.3064,0.3098,0.31,0.3101,0.3124,0.3108,0.3131,0.3125,0.3113,0.3124,0.3124,0.3126,0.3126,0.313,0.3139,0.3139,0.313,0.313,0.313,0.313,0,0,0,0,0,0,0,0.3058,0.3062,0.3105,0.3099,0.3101,0.3104,0.3107,0.3113,0.3119,0.3114,0.3115,0.3123,0.3126,0.313,0.313,0.314,0.313,0.313,0.3131,0.3131,0.3208,0.321,0,0,0,0,0,0,0.306,0.3061,0.3104,0.3106,0.3082,0.3105,0.3108,0.3115,0.3119,0.3121,0.3123,0.3123,0.3129,0.313,0.313,0.3183,0.313,0.3131,0.3131,0.3206,0.3208,0.321,0,0,0,0,0,0,0.3058,0.3063,0.3102,0.3086,0.3092,0.3107,0.3114,0.3116,0.3131,0.3127,0.3127,0.3138,0.3129,0.3129,0.3153,0.3182,0.3131,0.3131,0.3204,0.3207,0.3209,0.3264,0,0,0,0,0,0,0.3056,0.3062,0.3071,0.3086,0.3093,0.3131,0.3115,0.3117,0.3137,0.3137,0.314,0.3139,0.3128,0.3153,0.3154,0.3181,0.3132,0.3202,0.3205,0.3208,0.326,0.3268,0.3275,0,0,0,0,0,0.3054,0.3066,0.3071,0.3077,0.3102,0.3132,0.3136,0.3143,0.3139,0.3153,0.3157,0.3139,0.3174,0.3154,0.3155,0.3184,0.32,0.3204,0.3208,0.3256,0.3266,0.3275,0,0,0,0,0,0,0.3043,0.3068,0.3073,0.3091,0.3117,0.3133,0.3148,0.3153,0.3168,0.3169,0.3158,0.3159,0.3195,0.3184,0.3162,0.3218,0.3186,0.319,0.3223,0.3232,0.3239,0.3249,0.3132,0,0,0,0,0,0.3046,0.3063,0.3088,0.3106,0.312,0.3137,0.3151,0.316,0.3174,0.318,0.3182,0.319,0.3211,0.3216,0.323,0.3254,0.3263,0.3276,0.3283,0.329,0.33,0.3348,0.3361,0.3223,0.3223,0.3223,0,0,0.3046,0.3064,0.3072,0.3105,0.3124,0.3149,0.3144,0.3174,0.3197,0.3179,0.3208,0.322,0.3226,0.326,0.3274,0.3252,0.3334,0.3295,0.33,0.3307,0.3354,0.3367,0.3379,0.3226,0.3225,0.3225,0,0,0.3056,0.3074,0.3092,0.3116,0.3153,0.3168,0.3181,0.3208,0.3223,0.3255,0.3256,0.3286,0.3302,0.3318,0.3327,0.3386,0.3378,0.3391,0.3429,0.3477,0.3488,0.3499,0.3525,0.3537,0.3388,0.3388,0.3388,0,0.3054,0.3081,0.3103,0.313,0.3157,0.3178,0.3209,0.3229,0.326,0.3288,0.3272,0.3336,0.3333,0.339,0.3407,0.3403,0.3423,0.3391,0.3486,0.3497,0.3506,0.3531,0.3543,0.3391,0.3391,0.339,0.339,0,0.3077,0.3103,0.312,0.316,0.3193,0.3225,0.3261,0.3296,0.3316,0.3338,0.3405,0.3412,0.3453,0.3457,0.3445,0.3519,0.3509,0.3495,0.3461,0.3524,0.3545,0.3557,0.3395,0.3394,0.3393,0.3393,0,0,0.3053,0.3122,0.3126,0.3144,0.3215,0.323,0.3299,0.336,0.3389,0.3436,0.3487,0.3533,0.3548,0.356,0.3561,0.359,0.3663,0.3571,0.3572,0.3592,0.3763,0.3727,0.3736,0.367,0.3673,0.3675,0.375,0,0.3064,0.3106,0.3153,0.3193,0.3218,0.328,0.3327,0.3387,0.3436,0.3484,0.354,0.358,0.3585,0.3599,0.3644,0.3661,0.37,0.3644,0.3703,0.3705,0.3662,0.3751,0.3459,0.35,0.3761,0.3763,0.3765,0,0.3064,0.3094,0.3141,0.3199,0.3216,0.3246,0.3329,0.3378,0.3476,0.3516,0.3605,0.364,0.3724,0.3692,0.3799,0.3767,0.3779,0.3782,0.3785,0.3741,0.3692,0.3481,0.3512,0.3785,0.3784,0.3782,0.3781,0,0.3009,0.3076,0.311,0.3132,0.3208,0.3247,0.3291,0.3388,0.3464,0.3544,0.3621,0.3701,0.3776,0.3813,0.3871,0.3835,0.3966,0.3912,0.3895,0.3891,0.365,0.3621,0.3983,0.3983,0.3983,0.3983,0.3983,0,0.2992,0.3007,0.3077,0.3086,0.3133,0.3194,0.3266,0.3324,0.345,0.3528,0.3636,0.3725,0.3816,0.3916,0.3909,0.397,0.4017,0.3928,0.3923,0.3661,0.3634,0.388,0.3867,0.3986,0.3985,0.3984,0.3984,0,0.2926,0.2976,0.3008,0.3079,0.3111,0.3136,0.3284,0.3317,0.3456,0.3574,0.3619,0.3803,0.3906,0.3997,0.4057,0.4046,0.4062,0.4064,0.3751,0.3708,0.3934,0.3923,0.4034,0.4034,0.4033,0.4033,0.4033,0,0.2897,0.2907,0.2991,0.3011,0.3046,0.3117,0.3158,0.3303,0.3368,0.3601,0.3644,0.3834,0.3918,0.4056,0.4038,0.4052,0.4097,0.3786,0.3663,0.3963,0.3947,0.3936,0.3926,0.3353,0.3347,0.3342,0.3339,0,0.2839,0.2872,0.2897,0.2948,0.2986,0.3048,0.3127,0.3203,0.3353,0.3482,0.3618,0.3713,0.3877,0.3778,0.3855,0.3808,0.3754,0.3693,0.4101,0.3401,0.3331,0.3312,0.3322,0.3297,0.3301,0.3304,0.3306,0.3308,0.2791,0.2796,0.283,0.2865,0.2906,0.293,0.2939,0.3039,0.3148,0.3266,0.3443,0.3482,0.3551,0.352,0.3424,0.3359,0.3604,0.3417,0.3426,0.3442,0.3366,0.3301,0.3245,0.3249,0.3252,0.3255,0.3257,0,0.2711,0.272,0.2741,0.2758,0.2732,0.281,0.2865,0.2837,0.2878,0.3019,0.3116,0.2942,0.2929,0.2982,0.2836,0.2861,0.2779,0.2726,0.2574,0.2622,0.2663,0.254,0.2204,0.22,0.2196,0.2193,0,0,0.2665,0.2636,0.2639,0.2569,0.2577,0.2509,0.2505,0.25,0.2557,0.2553,0.2565,0.2802,0.2922,0.252,0.2489,0.2307,0.2427,0.222,0.308,0.2951,0.2986,0.31,0.2972,0,0,0,0,0]},{"header":{"parameterUnit":"m.s-1","parameterCategory":2,"la1":30.2991,"la2":30.254,"lo1":-89.0895,"lo2":-89.0444,"dy":0.0017,"dx":0.0017,"nx":28,"ny":28,"refTime":"2024-02-05T09:00:00:Z","depth":"2","parameterNumber":3,"parameterNumberName":"V-component_of_CURRENTS"},"data":[0,0,0,0,0,0,0,0,0,0,0,0,0,0,0,0,0,0,0,0,0,0,0,0,0,0,0,0,0,0,0,0,0,0,0,0,0,0,0,0,0,0,0,0,0,0,0,0,0,0,0,0,0,0,0,0,0,0,0.0179,0.0179,0,0.0119,0.0118,0.0117,0.0073,0.0073,0.0073,0.0072,0.0002,0.0,-0.0002,0,0,0,0,0,0,0,0,0,0,0,0,0,0.0206,0.0206,0.0179,0.0179,0.0178,0.0119,0.0118,0.0117,0.0073,0.0073,0.0072,0.0072,0.0002,0.0,-0.0002,0,0,0,0,0,0,0,0,0,0,0,0,0,0.0174,0.0206,0.018,0.015,0.0147,0.0119,0.0118,0.0117,0.0073,0.0073,0.0072,0.0072,0.0003,0.0,-0.0002,-0.0009,0,0,-0.0009,-0.001,0,0,0,0,0,0,0,0,0.0176,0.0173,0.0155,0.0152,0.0148,0.0104,0.0102,0.0075,0.0073,0.01,0.0072,0.0072,0.0036,0.0031,0.0019,-0.0012,-0.0015,-0.001,-0.0011,-0.0012,-0.0013,0,0,0,0,0,0,0,0.0178,0.0175,0.0154,0.0154,0.015,0.0122,0.0118,0.0096,0.007,0.0098,0.0094,0.009,0.0034,0.0021,0.0017,-0.0016,-0.001,-0.0012,-0.0013,-0.0014,-0.0059,-0.0059,0,0,0,0,0,0,0.0191,0.0178,0.0156,0.0153,0.0163,0.0123,0.0117,0.0118,0.007,0.0063,0.009,0.0088,0.0026,0.002,0.0014,0.0016,-0.0012,-0.0014,-0.0016,-0.006,-0.0059,-0.0059,0,0,0,0,0,0,0.0192,0.019,0.0159,0.0164,0.0158,0.0123,0.0124,0.0117,0.0107,0.0065,0.0057,0.0088,0.0025,0.0018,0.0003,0.0012,-0.0015,-0.0018,-0.006,-0.0059,-0.0059,0.001,0,0,0,0,0,0,0.0193,0.0191,0.0196,0.0165,0.0159,0.0154,0.0124,0.0116,0.0105,0.0102,0.0061,0.0054,0.0024,0.0007,0.0,0.0008,-0.002,-0.006,-0.006,-0.0059,0.0008,0.0013,0.0018,0,0,0,0,0,0.0195,0.021,0.0197,0.0194,0.0167,0.0154,0.0149,0.012,0.0106,0.0109,0.008,0.0055,0.0005,0.0005,-0.0002,0.0005,-0.006,-0.006,-0.0059,0.0006,0.0012,0.0018,0,0,0,0,0,0,0.0224,0.0206,0.0191,0.0199,0.0181,0.0148,0.0148,0.0128,0.0107,0.0104,0.0061,0.0053,0.0041,0.0014,0.0015,-0.0008,-0.0033,-0.0034,0.0019,0.0024,0.0029,0.0052,-0.0022,0,0,0,0,0,0.0233,0.0239,0.0214,0.0219,0.0214,0.0182,0.0173,0.0155,0.0132,0.0122,0.0092,0.006,0.0036,0.0025,-0.0002,-0.0009,-0.004,-0.0012,-0.0007,-0.0002,0.0011,-0.003,-0.0027,-0.0057,-0.0057,-0.0057,0,0,0.0244,0.0236,0.0238,0.0226,0.0209,0.0216,0.0175,0.017,0.0176,0.0118,0.0116,0.0078,0.0038,0.0026,0.0018,0.0007,-0.001,-0.0002,0.0003,0.0013,-0.0029,-0.0026,-0.0024,-0.0057,-0.0057,-0.0057,0,0,0.0278,0.0265,0.0283,0.0275,0.0259,0.0243,0.0246,0.0218,0.0204,0.0194,0.0154,0.0126,0.0089,0.0063,0.0045,0.0062,0.0017,0.0049,0.0095,0.0055,0.0058,0.0059,0.0026,0.0024,0.0053,0.0053,0.0053,0,0.0292,0.0312,0.0286,0.0301,0.0304,0.0263,0.0286,0.0268,0.0237,0.0232,0.0204,0.0146,0.0108,0.0097,0.0099,0.0075,0.0045,0.0078,0.0063,0.0064,0.0064,0.0029,0.0027,0.0056,0.0056,0.0055,0.0055,0,0.0339,0.0354,0.0365,0.0374,0.0373,0.0385,0.0363,0.0359,0.0333,0.0308,0.0285,0.0225,0.0194,0.017,0.0139,0.0127,0.0102,0.0073,0.0052,0.0072,0.0033,0.0029,0.0061,0.006,0.0059,0.0058,0,0,0.0379,0.0396,0.0401,0.0423,0.0414,0.0426,0.0436,0.0436,0.045,0.0396,0.0402,0.034,0.0297,0.0274,0.0223,0.0183,0.0154,0.0136,0.0132,0.0111,0.007,0.0046,0.0039,0.012,0.012,0.012,0.0042,0,0.0425,0.048,0.047,0.0524,0.0553,0.0526,0.0545,0.0536,0.0511,0.0503,0.043,0.041,0.0341,0.0324,0.0274,0.0187,0.0146,0.0178,0.0047,0.0044,0.0026,0.0034,0.0071,0.0004,0.0038,0.0037,0.0036,0,0.0479,0.0511,0.0571,0.0613,0.0624,0.0643,0.0672,0.068,0.0651,0.0626,0.0582,0.0526,0.0466,0.0399,0.0264,0.0287,0.0191,0.0113,0.0108,0.0062,0.0012,-0.0012,-0.0005,0.0029,0.0029,0.003,0.003,0,0.0537,0.0587,0.0642,0.0653,0.0687,0.0708,0.0722,0.0715,0.0747,0.07,0.0716,0.0616,0.0584,0.0448,0.0291,0.0277,0.0136,0.0095,-0.0016,-0.0019,-0.0025,-0.0027,0.0002,0.0002,0.0002,0.0002,0.0003,0,0.0596,0.0641,0.0673,0.0702,0.0782,0.077,0.0841,0.0832,0.0843,0.089,0.0785,0.0801,0.0595,0.0494,0.0328,0.015,0.0163,-0.0001,-0.0039,-0.0,0.0,-0.0009,-0.0009,-0.0001,0.0,0.0001,0.0001,0,0.065,0.0666,0.0737,0.0784,0.0811,0.0862,0.0939,0.0986,0.0976,0.1034,0.1031,0.0947,0.0806,0.0598,0.0375,0.0217,0.0033,-0.0035,0.0027,-0.0003,-0.0106,-0.0102,-0.0165,-0.0167,-0.0168,-0.0169,-0.017,0,0.0682,0.0723,0.0806,0.0858,0.0881,0.0961,0.1022,0.1048,0.111,0.1133,0.1176,0.1066,0.1013,0.0679,0.0369,0.0076,0.0033,-0.0088,-0.0113,-0.0092,-0.0122,-0.0116,-0.0111,-0.0095,-0.0095,-0.0096,-0.0096,0,0.0743,0.0767,0.0827,0.094,0.1014,0.112,0.1208,0.129,0.1321,0.1373,0.1414,0.1374,0.1062,0.0767,0.0355,0.0162,-0.0043,-0.0101,-0.0094,-0.0057,-0.0032,-0.006,-0.0056,-0.0097,-0.0097,-0.0097,-0.0097,-0.0097,0.0788,0.0843,0.092,0.103,0.1128,0.1258,0.1353,0.1455,0.1574,0.1654,0.1597,0.1534,0.1193,0.0678,0.0315,-0.0063,-0.0039,-0.017,-0.0167,-0.0164,-0.014,-0.0119,-0.0195,-0.0196,-0.0196,-0.0196,-0.0197,0,0.0845,0.0906,0.1007,0.1136,0.1251,0.1299,0.1468,0.1563,0.1708,0.177,0.1797,0.1471,0.1134,0.0736,0.0176,-0.0153,-0.0169,-0.0256,-0.0208,-0.0203,-0.0199,-0.0176,-0.0242,-0.0243,-0.0245,-0.0246,0,0,0.0874,0.0973,0.1024,0.1215,0.1314,0.1477,0.158,0.1719,0.1809,0.1872,0.1835,0.1757,0.1267,0.0849,0.0397,0.0069,0.0014,0.0015,0.0093,0.0211,0.0218,-0.0103,-0.0056,0,0,0,0,0]}],[{"header":{"parameterUnit":"m.s-1","parameterCategory":2,"la1":30.2991,"la2":30.254,"lo1":-89.0895,"lo2":-89.0444,"dy":0.0017,"dx":0.0017,"nx":28,"ny":28,"refTime":"2024-02-05T09:00:00:Z","depth":"4","parameterNumber":2,"parameterNumberName":"U-component_of_CURRENTS"},"data":[0,0,0,0,0,0,0,0,0,0,0,0,0,0,0,0,0,0,0,0,0,0,0,0,0,0,0,0,0,0,0,0,0,0,0,0,0,0,0,0,0,0,0,0,0,0,0,0,0,0,0,0,0,0,0,0,0,0,0.2066,0.2067,0,0.2147,0.2148,0.2149,0.2215,0.2216,0.2217,0.2218,0.2312,0.2314,0.2315,0,0,0,0,0,0,0,0,0,0,0,0,0,0.1963,0.1964,0.2065,0.2067,0.2068,0.2147,0.2148,0.2149,0.2215,0.2216,0.2217,0.2218,0.2312,0.2314,0.2316,0,0,0,0,0,0,0,0,0,0,0,0,0,0.202,0.1965,0.2065,0.2112,0.2117,0.2147,0.2148,0.2149,0.2215,0.2216,0.2217,0.2219,0.2311,0.2313,0.2316,0.2306,0,0,0.2324,0.2325,0,0,0,0,0,0,0,0,0.2017,0.2024,0.2104,0.2109,0.2114,0.2174,0.2147,0.2203,0.2215,0.2176,0.2218,0.2219,0.2267,0.2274,0.2283,0.231,0.2314,0.2324,0.2326,0.2327,0.2327,0,0,0,0,0,0,0,0.2013,0.2021,0.2096,0.2105,0.2112,0.2128,0.2137,0.2157,0.2212,0.2179,0.2185,0.2196,0.227,0.2281,0.2286,0.2316,0.2324,0.2326,0.2328,0.2329,0.2469,0.2471,0,0,0,0,0,0,0.2006,0.2017,0.2093,0.2099,0.207,0.2128,0.2139,0.2152,0.2212,0.2223,0.2195,0.2199,0.2276,0.2283,0.229,0.2397,0.2327,0.2329,0.233,0.2467,0.2469,0.2472,0,0,0,0,0,0,0.2003,0.2012,0.209,0.2061,0.2072,0.2129,0.2143,0.2153,0.2208,0.2224,0.2235,0.2245,0.2277,0.2286,0.2352,0.2397,0.233,0.2332,0.2464,0.2468,0.2471,0.2537,0,0,0,0,0,0,0.2,0.201,0.2038,0.2061,0.2074,0.2137,0.2142,0.2154,0.2211,0.2219,0.227,0.2277,0.2279,0.2348,0.2354,0.2399,0.2334,0.2461,0.2466,0.247,0.2532,0.2542,0.2551,0,0,0,0,0,0.1996,0.2021,0.2039,0.205,0.2104,0.2138,0.2147,0.2189,0.2213,0.2243,0.2284,0.2278,0.2379,0.2352,0.2359,0.2405,0.2459,0.2465,0.2469,0.2528,0.254,0.255,0,0,0,0,0,0,0.1993,0.203,0.2051,0.2089,0.2126,0.2151,0.219,0.2213,0.2269,0.2291,0.2304,0.2314,0.239,0.2389,0.2359,0.2459,0.2419,0.2425,0.2461,0.2473,0.2482,0.2483,0.2337,0,0,0,0,0,0.2003,0.2038,0.2069,0.2107,0.2129,0.2168,0.2196,0.2225,0.2265,0.2293,0.2327,0.2368,0.2406,0.2435,0.2465,0.2516,0.2517,0.2552,0.2562,0.2569,0.2577,0.2622,0.2635,0.2488,0.2488,0.2488,0,0,0.2013,0.2041,0.2062,0.211,0.2146,0.218,0.219,0.2246,0.2288,0.2293,0.2375,0.2406,0.2429,0.2491,0.2525,0.2502,0.2613,0.2576,0.2582,0.2585,0.2628,0.2642,0.2655,0.2491,0.2491,0.249,0,0,0.2034,0.2077,0.2108,0.2142,0.2202,0.2223,0.2248,0.2299,0.2343,0.241,0.2431,0.249,0.2547,0.2573,0.259,0.2669,0.2662,0.2688,0.2736,0.278,0.2792,0.2803,0.282,0.2832,0.2691,0.2691,0.2691,0,0.2049,0.2089,0.2125,0.216,0.22,0.2245,0.2287,0.2328,0.2398,0.2442,0.2451,0.2562,0.2582,0.2655,0.2686,0.269,0.2708,0.2689,0.2791,0.2802,0.2812,0.2827,0.2839,0.2695,0.2694,0.2694,0.2693,0,0.2076,0.2127,0.2152,0.2212,0.2256,0.2305,0.2358,0.2421,0.2478,0.2515,0.2619,0.2653,0.272,0.2737,0.2736,0.2824,0.2812,0.2798,0.2758,0.283,0.2842,0.2853,0.27,0.2699,0.2697,0.2697,0,0,0.2055,0.2153,0.2165,0.2202,0.2294,0.2319,0.2412,0.2491,0.2547,0.2631,0.2707,0.2786,0.2819,0.2842,0.2859,0.2895,0.2974,0.2885,0.2885,0.2894,0.3068,0.2884,0.2878,0.2987,0.2989,0.2991,0.3046,0,0.2072,0.2138,0.2194,0.2266,0.2303,0.2387,0.2454,0.2537,0.2614,0.2694,0.2767,0.2841,0.2854,0.2896,0.2944,0.297,0.3009,0.296,0.3003,0.3004,0.2826,0.2887,0.2999,0.3054,0.3057,0.3059,0.306,0,0.207,0.2119,0.2196,0.2288,0.2314,0.237,0.2491,0.256,0.2685,0.2748,0.2856,0.2907,0.3007,0.2988,0.3094,0.307,0.3084,0.3089,0.3091,0.2903,0.2841,0.297,0.308,0.3078,0.3077,0.3076,0.3074,0,0.2008,0.2112,0.2176,0.221,0.2324,0.239,0.2462,0.2587,0.2672,0.2797,0.2877,0.2979,0.3065,0.3107,0.316,0.3138,0.3245,0.3206,0.3054,0.3041,0.316,0.3148,0.3272,0.3271,0.3271,0.3271,0.3271,0,0.1977,0.2027,0.2155,0.2183,0.2268,0.2358,0.2469,0.2552,0.2699,0.2781,0.2911,0.2986,0.3107,0.3189,0.3191,0.3164,0.3284,0.3069,0.3047,0.3186,0.3176,0.3167,0.3154,0.3273,0.3273,0.3272,0.3272,0,0.1896,0.1984,0.2059,0.2191,0.2245,0.2305,0.2493,0.2546,0.2707,0.2826,0.2881,0.3049,0.3124,0.3216,0.3278,0.32,0.3179,0.314,0.3292,0.3277,0.2931,0.2922,0.2946,0.294,0.2935,0.2931,0.2928,0,0.1855,0.189,0.2053,0.2103,0.2176,0.2295,0.2364,0.2538,0.2604,0.2827,0.2855,0.3018,0.3096,0.305,0.3142,0.3133,0.3103,0.3071,0.2983,0.2924,0.2901,0.29,0.2897,0.292,0.2918,0.2917,0.2916,0,0.1776,0.1859,0.192,0.203,0.2116,0.2205,0.2321,0.237,0.2541,0.2722,0.276,0.2799,0.2885,0.2916,0.2955,0.2938,0.3068,0.3017,0.3026,0.2943,0.2892,0.2874,0.2877,0.2898,0.2901,0.2902,0.2903,0,0.1726,0.1752,0.1848,0.1926,0.2026,0.2059,0.2151,0.2213,0.2316,0.2545,0.2544,0.2694,0.2843,0.2817,0.2839,0.2823,0.2765,0.2658,0.2684,0.2705,0.26,0.2498,0.2369,0,0,0,0,0,0.1658,0.1667,0.1729,0.1795,0.188,0.1943,0.2082,0.2171,0.235,0.2308,0.2424,0.2472,0.2507,0.2592,0.2524,0.2734,0.2783,0.2644,0.2674,0.2801,0.2822,0.2721,0,0,0,0,0,0,0.1608,0.1663,0.168,0.1661,0.1677,0.1754,0.1834,0.1958,0.1955,0.2144,0.2179,0.2319,0.2397,0.2515,0.2474,0.25,0.2466,0.2747,0.274,0.279,0.2808,0.2825,0.2729,0,0,0,0,0]},{"header":{"parameterUnit":"m.s-1","parameterCategory":2,"la1":30.2991,"la2":30.254,"lo1":-89.0895,"lo2":-89.0444,"dy":0.0017,"dx":0.0017,"nx":28,"ny":28,"refTime":"2024-02-05T09:00:00:Z","depth":"4","parameterNumber":3,"parameterNumberName":"V-component_of_CURRENTS"},"data":[0,0,0,0,0,0,0,0,0,0,0,0,0,0,0,0,0,0,0,0,0,0,0,0,0,0,0,0,0,0,0,0,0,0,0,0,0,0,0,0,0,0,0,0,0,0,0,0,0,0,0,0,0,0,0,0,0,0,0.0177,0.0177,0,0.0138,0.0138,0.0137,0.0109,0.0109,0.0109,0.0109,0.0058,0.0057,0.0056,0,0,0,0,0,0,0,0,0,0,0,0,0,0.0192,0.0192,0.0177,0.0177,0.0176,0.0138,0.0138,0.0137,0.0109,0.0109,0.0109,0.0109,0.0059,0.0057,0.0056,0,0,0,0,0,0,0,0,0,0,0,0,0,0.0172,0.0192,0.0177,0.0159,0.0157,0.0139,0.0138,0.0137,0.0109,0.0109,0.0109,0.0109,0.0059,0.0058,0.0056,0.0049,0,0,0.005,0.0049,0,0,0,0,0,0,0,0,0.0173,0.0171,0.0162,0.016,0.0158,0.0129,0.0125,0.0107,0.0109,0.0126,0.0109,0.0108,0.0082,0.0078,0.007,0.0047,0.0045,0.005,0.0049,0.0048,0.0048,0,0,0,0,0,0,0,0.0175,0.0173,0.0161,0.0161,0.0159,0.014,0.0137,0.0121,0.0105,0.0125,0.0123,0.012,0.008,0.0072,0.0069,0.0044,0.005,0.0049,0.0047,0.0047,0.0013,0.0014,0,0,0,0,0,0,0.0183,0.0174,0.0162,0.016,0.0166,0.014,0.0137,0.0138,0.0105,0.01,0.012,0.0119,0.0075,0.0071,0.0067,0.007,0.0048,0.0047,0.0046,0.0013,0.0013,0.0014,0,0,0,0,0,0,0.0184,0.0183,0.0164,0.0167,0.0163,0.0141,0.0141,0.0137,0.0133,0.0102,0.0097,0.0121,0.0075,0.0069,0.006,0.0068,0.0046,0.0044,0.0013,0.0013,0.0014,0.0069,0,0,0,0,0,0,0.0185,0.0183,0.0189,0.0167,0.0163,0.0162,0.0142,0.0137,0.0132,0.013,0.0101,0.0096,0.0074,0.0063,0.0058,0.0065,0.0043,0.0013,0.0013,0.0014,0.0067,0.0071,0.0075,0,0,0,0,0,0.0185,0.0197,0.019,0.0188,0.0171,0.0162,0.0159,0.0141,0.0132,0.0135,0.0116,0.0097,0.0062,0.0062,0.0056,0.0063,0.0013,0.0013,0.0013,0.0065,0.007,0.0075,0,0,0,0,0,0,0.0206,0.0195,0.0186,0.0194,0.0182,0.0158,0.0161,0.0147,0.0134,0.0134,0.0103,0.0096,0.0089,0.0068,0.007,0.0053,0.0033,0.0032,0.0074,0.0078,0.0082,0.01,0.0041,0,0,0,0,0,0.0214,0.0221,0.0203,0.021,0.0207,0.0185,0.018,0.0168,0.0153,0.0146,0.0125,0.0103,0.0086,0.0078,0.0058,0.0053,0.0025,0.0051,0.0055,0.0059,0.0069,0.0032,0.0033,0.0015,0.0015,0.0015,0,0,0.0224,0.0219,0.0222,0.0215,0.0204,0.0211,0.0181,0.018,0.0186,0.0143,0.0146,0.0117,0.0087,0.008,0.0074,0.0065,0.0049,0.0059,0.0063,0.0071,0.0032,0.0034,0.0036,0.0015,0.0015,0.0015,0,0,0.025,0.0243,0.0258,0.0253,0.0244,0.0234,0.0237,0.0218,0.021,0.0205,0.0175,0.0155,0.013,0.0109,0.0095,0.0109,0.007,0.0099,0.0135,0.0099,0.0101,0.0102,0.0068,0.0065,0.0102,0.0102,0.0102,0,0.0262,0.0278,0.026,0.0273,0.0278,0.0249,0.0269,0.0257,0.0237,0.0234,0.0215,0.0173,0.0144,0.0135,0.0137,0.0119,0.0092,0.0122,0.0105,0.0105,0.0105,0.007,0.0067,0.0105,0.0104,0.0104,0.0104,0,0.0296,0.0311,0.032,0.033,0.0333,0.0343,0.0329,0.0329,0.0313,0.0296,0.028,0.0234,0.0212,0.0193,0.017,0.0157,0.0136,0.0115,0.0096,0.0111,0.0073,0.0068,0.0109,0.0108,0.0107,0.0106,0,0,0.0323,0.0342,0.0347,0.0367,0.0366,0.0376,0.0387,0.039,0.0403,0.0364,0.037,0.0324,0.0293,0.0275,0.0235,0.02,0.017,0.0162,0.0159,0.0135,0.0091,0.0073,0.0066,0.0144,0.0144,0.0143,0.0064,0,0.0357,0.0401,0.0399,0.0445,0.0469,0.0454,0.0472,0.0468,0.0452,0.0447,0.0391,0.0379,0.0326,0.0316,0.0272,0.0198,0.016,0.0193,0.0076,0.0072,0.006,0.0061,0.0142,0.006,0.0059,0.0058,0.0058,0,0.0394,0.0422,0.0473,0.0514,0.0524,0.0546,0.0574,0.0583,0.0563,0.0547,0.0514,0.0471,0.0421,0.037,0.0252,0.0275,0.0193,0.0127,0.0122,0.0086,0.0047,0.0041,0.0049,0.005,0.005,0.0051,0.0051,0,0.043,0.0477,0.0525,0.0537,0.0573,0.0597,0.0615,0.0614,0.0641,0.061,0.062,0.0541,0.0514,0.04,0.0266,0.026,0.0127,0.01,0.0005,0.0003,0.0018,0.0018,0.0017,0.0017,0.0017,0.0017,0.0017,0,0.0466,0.0507,0.055,0.0574,0.0646,0.0646,0.071,0.0708,0.0721,0.0756,0.0677,0.068,0.0521,0.0428,0.0291,0.0136,0.0144,0.0015,-0.0017,0.0042,0.0046,0.0014,0.0015,0.0014,0.0015,0.0015,0.0016,0,0.0495,0.0519,0.0583,0.0636,0.0665,0.0713,0.079,0.0828,0.0827,0.0868,0.0867,0.079,0.066,0.0493,0.0303,0.0183,0.0026,-0.0032,0.005,0.0023,-0.008,-0.0076,-0.014,-0.0141,-0.0142,-0.0143,-0.0144,0,0.0511,0.0546,0.0635,0.0684,0.0713,0.079,0.0846,0.0878,0.0923,0.0934,0.0957,0.0858,0.0779,0.0507,0.0313,0.0048,0.0005,-0.0079,-0.0087,-0.007,-0.0096,-0.0089,-0.0084,-0.0145,-0.0146,-0.0146,-0.0146,0,0.0541,0.0574,0.0628,0.0733,0.0805,0.0898,0.0977,0.1024,0.1056,0.1064,0.1035,0.0894,0.0744,0.0517,0.031,0.0118,-0.0028,-0.0091,-0.009,-0.0098,-0.0078,-0.0101,-0.0094,-0.015,-0.0149,-0.0149,-0.0149,0,0.0566,0.061,0.0684,0.0777,0.0877,0.097,0.1013,0.1066,0.1115,0.1119,0.1106,0.0935,0.0839,0.0553,0.0363,0.0169,0.0114,0.0043,0.0036,0.0037,0.0103,0.0155,0.0133,0,0,0,0,0,0.0586,0.0636,0.0721,0.0823,0.0923,0.0987,0.1089,0.112,0.1159,0.1148,0.1132,0.0988,0.0704,0.0588,0.0392,0.0327,0.0071,0.0088,-0.0017,-0.017,-0.0166,-0.0122,0,0,0,0,0,0,0.0596,0.0676,0.0719,0.0847,0.0923,0.1039,0.1107,0.1132,0.1134,0.1137,0.0997,0.0926,0.0658,0.0816,0.0385,0.0326,0.0229,-0.0039,-0.0044,-0.0173,-0.0169,-0.0165,-0.0119,0,0,0,0,0]}]]